| time (UTC) | temp F | wind direction | speed MPH | gust MPH | rain 1hr in | rain 24hr in | rain mn in | humidity % | barometer mb |
| 20260905193515 | 64 | 0.0 | 0.0 | 0.00 | 0.02 | 0.02 | 83 | 1025.0 | |
| 20260905192517 | 64 | 0.0 | 0.0 | 0.00 | 0.02 | 0.02 | 83 | 1025.0 | |
| 20260905191517 | 65 | 0.0 | 0.0 | 0.00 | 0.02 | 0.02 | 83 | 1025.0 | |
| 20260905190517 | 65 | 0.0 | 0.0 | 0.00 | 0.02 | 0.02 | 82 | 1024.9 | |
| 20260905185517 | 65 | 0.0 | 0.0 | 0.00 | 0.02 | 0.02 | 81 | 1024.9 | |
| 20260905184517 | 66 | 0.0 | 0.0 | 0.00 | 0.02 | 0.02 | 79 | 1024.6 | |
| 20260905183517 | 66 | 0.0 | 0.0 | 0.00 | 0.02 | 0.02 | 79 | 1024.4 | |
| 20260905182537 | 66 | 0.0 | 0.0 | 0.00 | 0.02 | 0.02 | 78 | 1024.3 | |
| 20260905181517 | 67 | 0.0 | 0.0 | 0.00 | 0.02 | 0.02 | 78 | 1024.3 | |
| 20260905180517 | 67 | 0.0 | 0.0 | 0.00 | 0.02 | 0.02 | 77 | 1024.1 | |
| 20260905175537 | 68 | 0.0 | 0.0 | 0.00 | 0.02 | 0.02 | 77 | 1024.0 | |
| 20260905174517 | 68 | 0.0 | 0.0 | 0.00 | 0.02 | 0.02 | 77 | 1024.0 | |
| 20260905173517 | 68 | 0.0 | 0.0 | 0.00 | 0.02 | 0.02 | 76 | 1023.8 | |
| 20260905172517 | 69 | 0.0 | 0.0 | 0.00 | 0.02 | 0.02 | 76 | 1023.8 | |
| 20260905171517 | 69 | 0.0 | 0.0 | 0.00 | 0.02 | 0.02 | 76 | 1023.8 | |
| 20260905170517 | 69 | 0.0 | 0.0 | 0.00 | 0.02 | 0.02 | 76 | 1023.7 | |
| 20260905165517 | 69 | 0.0 | 2.0 | 0.00 | 0.02 | 0.02 | 75 | 1023.8 | |
| 20260905164517 | 69 | 0.0 | 2.0 | 0.00 | 0.02 | 0.02 | 75 | 1023.7 | |
| 20260905163517 | 69 | 0.0 | 1.0 | 0.00 | 0.02 | 0.02 | 74 | 1023.6 | |
| 20260905162517 | 69 | 0.0 | 2.0 | 0.00 | 0.02 | 0.02 | 74 | 1023.5 | |
| 20260905161517 | 69 | 0.0 | 1.0 | 0.00 | 0.02 | 0.02 | 75 | 1023.7 | |
| 20260905160517 | 69 | 0.0 | 4.0 | 0.00 | 0.02 | 0.02 | 75 | 1023.6 | |
| 20260905155517 | 69 | 0.0 | 3.0 | 0.00 | 0.02 | 0.02 | 75 | 1023.4 | |
| 20260905154518 | 69 | 0.0 | 2.0 | 0.00 | 0.02 | 0.02 | 76 | 1023.4 | |
| 20260905153537 | 69 | 0.0 | 2.0 | 0.00 | 0.02 | 0.02 | 76 | 1023.5 | |
| 20260905152517 | 69 | 0.0 | 0.0 | 0.00 | 0.02 | 0.02 | 76 | 1023.5 | |
| 20260905151517 | 69 | 0.0 | 2.0 | 0.00 | 0.02 | 0.02 | 76 | 1023.7 | |
| 20260905150517 | 69 | 0.0 | 2.0 | 0.00 | 0.02 | 0.02 | 74 | 1023.7 | |
| 20260905145517 | 69 | 0.0 | 2.0 | 0.00 | 0.02 | 0.02 | 74 | 1023.8 | |
| 20260905144517 | 69 | 0.0 | 1.0 | 0.00 | 0.02 | 0.02 | 76 | 1023.9 | |
| 20260905143517 | 69 | 0.0 | 1.0 | 0.00 | 0.02 | 0.02 | 76 | 1023.9 | |
| 20260905142537 | 68 | 0.0 | 0.0 | 0.00 | 0.02 | 0.02 | 77 | 1024.0 | |
| 20260905141517 | 68 | 0.0 | 3.0 | 0.00 | 0.02 | 0.02 | 78 | 1024.1 | |
| 20260905140517 | 68 | 0.0 | 0.0 | 0.00 | 0.02 | 0.02 | 77 | 1024.1 | |
| 20260905135517 | 69 | 0.0 | 4.0 | 0.00 | 0.02 | 0.02 | 74 | 1024.3 | |
| 20260905134517 | 70 | 0.0 | 1.0 | 0.00 | 0.02 | 0.02 | 73 | 1024.2 | |
| 20260905133517 | 70 | 315 | 2.0 | 7.0 | 0.00 | 0.02 | 0.02 | 74 | 1024.1 |
| 20260905132517 | 71 | 0.0 | 3.0 | 0.00 | 0.02 | 0.02 | 76 | 1024.1 | |
| 20260905131517 | 71 | 315 | 1.0 | 4.0 | 0.00 | 0.02 | 0.02 | 75 | 1024.0 |
| 20260905130517 | 72 | 0.0 | 2.0 | 0.00 | 0.02 | 0.02 | 75 | 1023.6 | |
| 20260905125517 | 72 | 0.0 | 4.0 | 0.00 | 0.02 | 0.02 | 75 | 1023.8 | |
| 20260905124517 | 73 | 0.0 | 3.0 | 0.00 | 0.02 | 0.02 | 72 | 1023.6 | |
| 20260905123537 | 73 | 0.0 | 1.0 | 0.00 | 0.02 | 0.02 | 73 | 1023.6 | |
| 20260905122517 | 72 | 0.0 | 1.0 | 0.01 | 0.02 | 0.02 | 76 | 1023.5 | |
| 20260905121517 | 70 | 0.0 | 0.0 | 0.01 | 0.02 | 0.02 | 80 | 1023.4 | |
| 20260905120517 | 70 | 0.0 | 0.0 | 0.01 | 0.02 | 0.02 | 81 | 1023.5 | |
| 20260905115516 | 70 | 0.0 | 0.0 | 0.01 | 0.02 | 0.02 | 81 | 1023.6 | |
| 20260905114537 | 69 | 0.0 | 0.0 | 0.01 | 0.02 | 0.02 | 81 | 1023.7 | |
| 20260905113516 | 68 | 0.0 | 0.0 | 0.01 | 0.02 | 0.02 | 84 | 1023.5 | |
| 20260905112516 | 67 | 0.0 | 0.0 | 0.00 | 0.02 | 0.02 | 83 | 1023.5 | |
| 20260905111517 | 67 | 0.0 | 0.0 | 0.00 | 0.02 | 0.02 | 83 | 1023.5 | |
| 20260905110516 | 67 | 0.0 | 0.0 | 0.00 | 0.02 | 0.02 | 84 | 1023.2 | |
| 20260905105517 | 67 | 0.0 | 0.0 | 0.00 | 0.02 | 0.02 | 83 | 1023.4 | |
| 20260905104517 | 68 | 0.0 | 0.0 | 0.00 | 0.02 | 0.02 | 81 | 1023.4 | |
| 20260905103517 | 68 | 0.0 | 0.0 | 0.00 | 0.02 | 0.02 | 79 | 1023.3 | |
| 20260905102517 | 68 | 0.0 | 0.0 | 0.00 | 0.02 | 0.02 | 74 | 1023.5 | |
| 20260905101536 | 69 | 0.0 | 1.0 | 0.00 | 0.02 | 0.02 | 76 | 1023.5 | |
| 20260905100516 | 69 | 0.0 | 0.0 | 0.00 | 0.02 | 0.02 | 76 | 1023.3 | |
| 20260905095516 | 69 | 0.0 | 1.0 | 0.00 | 0.02 | 0.02 | 78 | 1023.4 | |
| 20260905094516 | 70 | 0.0 | 1.0 | 0.00 | 0.02 | 0.02 | 80 | 1023.4 | |
| 20260905093516 | 70 | 0.0 | 3.0 | 0.00 | 0.02 | 0.02 | 80 | 1023.2 | |
| 20260905092517 | 69 | 0.0 | 0.0 | 0.00 | 0.02 | 0.02 | 81 | 1023.1 | |
| 20260905091516 | 69 | 0.0 | 1.0 | 0.00 | 0.02 | 0.02 | 81 | 1023.1 | |
| 20260905090517 | 69 | 0.0 | 2.0 | 0.00 | 0.02 | 0.02 | 83 | 1023.1 | |
| 20260905085517 | 69 | 0.0 | 2.0 | 0.00 | 0.02 | 0.02 | 83 | 1023.0 | |
| 20260905084537 | 69 | 0.0 | 0.0 | 0.00 | 0.02 | 0.02 | 84 | 1023.0 | |
| 20260905083516 | 68 | 0.0 | 1.0 | 0.00 | 0.02 | 0.02 | 86 | 1022.9 | |
| 20260905082557 | 67 | 0.0 | 0.0 | 0.00 | 0.02 | 0.02 | 86 | 1022.5 | |
| 20260905081516 | 67 | 0.0 | 0.0 | 0.00 | 0.02 | 0.02 | 86 | 1022.5 | |
| 20260905080516 | 67 | 0.0 | 0.0 | 0.00 | 0.02 | 0.02 | 85 | 1022.2 | |
| 20260905075516 | 67 | 0.0 | 0.0 | 0.01 | 0.02 | 0.02 | 85 | 1022.2 | |
| 20260905074517 | 67 | 0.0 | 0.0 | 0.02 | 0.02 | 0.02 | 84 | 1022.2 | |
| 20260905073517 | 67 | 0.0 | 0.0 | 0.02 | 0.02 | 0.02 | 84 | 1022.1 | |
| 20260905072516 | 67 | 0.0 | 0.0 | 0.02 | 0.02 | 0.02 | 84 | 1022.1 | |
| 20260905071516 | 67 | 0.0 | 0.0 | 0.02 | 0.02 | 0.02 | 83 | 1021.8 | |
| 20260905070517 | 67 | 0.0 | 0.0 | 0.02 | 0.02 | 0.02 | 83 | 1021.8 | |
| 20260905065536 | 67 | 0.0 | 0.0 | 0.01 | 0.01 | 0.01 | 82 | 1021.8 | |
| 20260905064517 | 67 | 0.0 | 0.0 | 0.00 | 0.00 | 0.00 | 81 | 1021.8 | |
| 20260905063516 | 67 | 0.0 | 0.0 | 0.00 | 0.00 | 0.00 | 81 | 1021.9 | |
| 20260905062516 | 67 | 0.0 | 0.0 | 0.00 | 0.00 | 0.00 | 80 | 1021.5 | |
| 20260905061516 | 67 | 0.0 | 0.0 | 0.00 | 0.00 | 0.00 | 80 | 1021.6 | |
| 20260905060516 | 67 | 0.0 | 0.0 | 0.00 | 0.00 | 0.00 | 79 | 1021.3 | |
| 20260905055516 | 67 | 0.0 | 0.0 | 0.00 | 0.00 | 0.00 | 79 | 1021.4 | |
| 20260905054516 | 67 | 0.0 | 0.0 | 0.00 | 0.00 | 0.00 | 79 | 1021.1 | |
| 20260905053516 | 67 | 0.0 | 0.0 | 0.00 | 0.00 | 0.00 | 79 | 1020.8 | |
| 20260905052516 | 67 | 0.0 | 0.0 | 0.00 | 0.00 | 0.00 | 78 | 1021.1 | |
| 20260905051516 | 67 | 0.0 | 0.0 | 0.00 | 0.00 | 0.00 | 78 | 1021.0 | |
| 20260905050516 | 67 | 0.0 | 0.0 | 0.00 | 0.00 | 0.00 | 78 | 1021.2 | |
| 20260905045516 | 67 | 0.0 | 0.0 | 0.00 | 0.00 | 0.00 | 78 | 1021.1 | |
| 20260905044616 | 67 | 0.0 | 0.0 | 0.00 | 0.00 | 0.00 | 77 | 1020.9 | |
| 20260905043536 | 67 | 0.0 | 0.0 | 0.00 | 0.00 | 0.00 | 77 | 1020.9 | |
| 20260905042516 | 67 | 0.0 | 0.0 | 0.00 | 0.00 | 0.00 | 78 | 1020.9 | |
| 20260905041516 | 67 | 0.0 | 0.0 | 0.00 | 0.00 | 0.00 | 78 | 1020.8 | |
| 20260905040516 | 67 | 0.0 | 0.0 | 0.00 | 0.00 | 0.00 | 78 | 1020.6 | |
| 20260905035516 | 67 | 0.0 | 1.0 | 0.00 | 0.00 | 0.00 | 77 | 1020.6 | |
| 20260905034516 | 67 | 0.0 | 0.0 | 0.00 | 0.00 | 0.00 | 77 | 1020.5 | |
| 20260905033516 | 67 | 0.0 | 0.0 | 0.00 | 0.00 | 0.00 | 77 | 1020.2 | |
| 20260905032516 | 67 | 0.0 | 0.0 | 0.00 | 0.00 | 0.00 | 76 | 1020.1 | |
| 20260905031516 | 67 | 0.0 | 0.0 | 0.00 | 0.00 | 0.00 | 75 | 1020.0 | |
| 20260905030516 | 67 | 0.0 | 0.0 | 0.00 | 0.00 | 0.00 | 74 | 1020.0 | |
| 20260905025516 | 67 | 0.0 | 0.0 | 0.00 | 0.00 | 0.00 | 73 | 1019.9 | |
| 20260905024516 | 68 | 0.0 | 0.0 | 0.00 | 0.00 | 0.00 | 73 | 1019.8 | |
| 20260905023516 | 68 | 0.0 | 0.0 | 0.00 | 0.00 | 0.00 | 72 | 1019.6 | |
| 20260905022516 | 69 | 0.0 | 0.0 | 0.00 | 0.00 | 0.00 | 71 | 1019.2 | |
| 20260905021636 | 69 | 0.0 | 0.0 | 0.00 | 0.00 | 0.00 | 69 | 1019.2 | |
| 20260905020516 | 70 | 0.0 | 0.0 | 0.00 | 0.00 | 0.00 | 69 | 1019.0 | |
| 20260905015556 | 70 | 0.0 | 0.0 | 0.00 | 0.00 | 0.00 | 68 | 1019.0 | |
| 20260905014516 | 71 | 0.0 | 0.0 | 0.00 | 0.00 | 0.00 | 68 | 1018.9 | |
| 20260905013516 | 71 | 0.0 | 0.0 | 0.00 | 0.00 | 0.00 | 67 | 1018.8 | |
| 20260905012516 | 71 | 0.0 | 1.0 | 0.00 | 0.00 | 0.00 | 67 | 1018.7 | |
| 20260905011516 | 71 | 0.0 | 0.0 | 0.00 | 0.00 | 0.00 | 65 | 1018.7 | |
| 20260905010516 | 72 | 0.0 | 0.0 | 0.00 | 0.00 | 0.00 | 64 | 1018.6 | |
| 20260905005556 | 72 | 0.0 | 0.0 | 0.00 | 0.00 | 0.00 | 64 | 1018.7 | |
| 20260905004516 | 72 | 0.0 | 0.0 | 0.00 | 0.00 | 0.00 | 64 | 1018.7 | |
| 20260905003516 | 72 | 0.0 | 0.0 | 0.00 | 0.00 | 0.00 | 64 | 1018.6 | |
| 20260905002516 | 72 | 0.0 | 0.0 | 0.00 | 0.00 | 0.00 | 64 | 1018.4 | |
| 20260905001536 | 72 | 0.0 | 1.0 | 0.00 | 0.00 | 0.00 | 64 | 1018.3 | |
| 20260905000516 | 72 | 0.0 | 0.0 | 0.00 | 0.00 | 0.00 | 65 | 1018.4 | |
| 20260904235536 | 72 | 0.0 | 3.0 | 0.00 | 0.00 | 0.00 | 65 | 1018.4 | |
| 20260904234516 | 72 | 0.0 | 0.0 | 0.00 | 0.00 | 0.00 | 65 | 1018.4 | |
| 20260904233516 | 71 | 0.0 | 1.0 | 0.00 | 0.00 | 0.00 | 66 | 1018.3 | |
| 20260904232516 | 71 | 0.0 | 0.0 | 0.00 | 0.00 | 0.00 | 66 | 1018.2 | |
| 20260904231516 | 72 | 0.0 | 0.0 | 0.00 | 0.00 | 0.00 | 65 | 1018.3 | |
| 20260904230516 | 72 | 0.0 | 0.0 | 0.00 | 0.00 | 0.00 | 65 | 1018.3 | |
| 20260904225516 | 72 | 0.0 | 0.0 | 0.00 | 0.00 | 0.00 | 64 | 1018.1 | |
| 20260904224516 | 72 | 0.0 | 0.0 | 0.00 | 0.00 | 0.00 | 63 | 1018.0 | |
| 20260904223516 | 73 | 0.0 | 0.0 | 0.00 | 0.00 | 0.00 | 63 | 1018.1 | |
| 20260904222516 | 73 | 0.0 | 0.0 | 0.00 | 0.00 | 0.00 | 62 | 1018.0 | |
| 20260904221516 | 74 | 0.0 | 0.0 | 0.00 | 0.00 | 0.00 | 61 | 1017.9 | |
| 20260904220516 | 74 | 0.0 | 1.0 | 0.00 | 0.00 | 0.00 | 61 | 1018.1 | |
| 20260904215516 | 74 | 0.0 | 1.0 | 0.00 | 0.00 | 0.00 | 61 | 1017.9 | |
| 20260904214516 | 74 | 0.0 | 0.0 | 0.00 | 0.00 | 0.00 | 60 | 1017.8 | |
| 20260904213537 | 74 | 0.0 | 0.0 | 0.00 | 0.00 | 0.00 | 60 | 1017.9 | |
| 20260904212536 | 74 | 0.0 | 0.0 | 0.00 | 0.00 | 0.00 | 59 | 1017.8 | |
| 20260904211517 | 75 | 0.0 | 0.0 | 0.00 | 0.00 | 0.00 | 59 | 1017.8 | |
| 20260904210618 | 75 | 0.0 | 0.0 | 0.00 | 0.00 | 0.00 | 58 | 1017.8 | |
| 20260904205516 | 75 | 0.0 | 0.0 | 0.00 | 0.00 | 0.00 | 58 | 1017.6 | |
| 20260904204517 | 75 | 0.0 | 0.0 | 0.00 | 0.00 | 0.00 | 58 | 1017.6 | |
| 20260904203517 | 75 | 0.0 | 0.0 | 0.00 | 0.00 | 0.00 | 57 | 1017.7 | |
| 20260904202516 | 75 | 0.0 | 1.0 | 0.00 | 0.00 | 0.00 | 57 | 1017.6 | |
| 20260904201516 | 75 | 0.0 | 0.0 | 0.00 | 0.00 | 0.00 | 57 | 1017.6 | |
| 20260904200516 | 75 | 0.0 | 1.0 | 0.00 | 0.00 | 0.00 | 57 | 1017.6 | |
| 20260904195517 | 75 | 0.0 | 0.0 | 0.00 | 0.00 | 0.00 | 57 | 1017.3 | |
| 20260904194537 | 76 | 0.0 | 0.0 | 0.00 | 0.00 | 0.00 | 57 | 1017.2 |